| time (UTC) | temp C | wind direction | speed KPH | gust KPH | rain 1hr cm | rain 24hr cm | rain mn cm | humidity % | barometer mb |
| 20260509013155 | 18 | 258 | 3.2 | 4.8 | 0.00 | 0.00 | 0.00 | 52 | 1006.8 |
| 20260509012652 | 18 | 284 | 0.0 | 1.6 | 0.00 | 0.00 | 0.00 | 54 | 1007.0 |
| 20260509012149 | 18 | 279 | 0.0 | 0.0 | 0.00 | 0.00 | 0.00 | 52 | 1006.8 |
| 20260509011647 | 18 | 275 | 0.0 | 1.6 | 0.00 | 0.00 | 0.00 | 52 | 1006.9 |
| 20260509011144 | 18 | 265 | 3.2 | 4.8 | 0.00 | 0.00 | 0.00 | 50 | 1006.6 |
| 20260509010641 | 18 | 272 | 0.0 | 0.0 | 0.00 | 0.00 | 0.00 | 49 | 1006.6 |
| 20260509010137 | 19 | 271 | 0.0 | 1.6 | 0.00 | 0.00 | 0.00 | 48 | 1006.8 |
| 20260509005635 | 19 | 271 | 0.0 | 1.6 | 0.00 | 0.00 | 0.00 | 46 | 1006.7 |
| 20260509005131 | 19 | 279 | 3.2 | 3.2 | 0.00 | 0.00 | 0.00 | 45 | 1006.5 |
| 20260509004627 | 19 | 269 | 3.2 | 9.7 | 0.00 | 0.00 | 0.00 | 45 | 1006.5 |
| 20260509004125 | 19 | 264 | 1.6 | 1.6 | 0.00 | 0.00 | 0.00 | 45 | 1006.2 |
| 20260509003623 | 19 | 265 | 3.2 | 3.2 | 0.00 | 0.00 | 0.00 | 44 | 1005.9 |
| 20260509003120 | 19 | 267 | 1.6 | 3.2 | 0.00 | 0.00 | 0.00 | 45 | 1006.0 |
| 20260509002617 | 19 | 268 | 1.6 | 3.2 | 0.00 | 0.00 | 0.00 | 45 | 1006.1 |
| 20260509002114 | 19 | 278 | 1.6 | 3.2 | 0.00 | 0.00 | 0.00 | 45 | 1006.2 |
| 20260509001612 | 20 | 217 | 4.8 | 4.8 | 0.00 | 0.00 | 0.00 | 44 | 1006.4 |
| 20260509001107 | 20 | 255 | 1.6 | 8.0 | 0.00 | 0.00 | 0.00 | 45 | 1006.3 |
| 20260509000606 | 20 | 272 | 1.6 | 8.0 | 0.00 | 0.00 | 0.00 | 44 | 1006.1 |
| 20260508235600 | 19 | 263 | 1.6 | 4.8 | 0.00 | 0.00 | 0.00 | 44 | 1006.2 |
| 20260508235056 | 19 | 272 | 0.0 | 3.2 | 0.00 | 0.00 | 0.00 | 46 | 1006.1 |
| 20260508234553 | 20 | 203 | 4.8 | 4.8 | 0.00 | 0.00 | 0.00 | 45 | 1006.2 |
| 20260508234050 | 20 | 247 | 3.2 | 4.8 | 0.00 | 0.00 | 0.00 | 45 | 1006.2 |
| 20260508233549 | 20 | 252 | 3.2 | 3.2 | 0.00 | 0.00 | 0.00 | 45 | 1006.2 |
| 20260508233046 | 20 | 269 | 1.6 | 8.0 | 0.00 | 0.00 | 0.00 | 45 | 1006.3 |
| 20260508232543 | 20 | 274 | 1.6 | 4.8 | 0.00 | 0.00 | 0.00 | 44 | 1006.3 |
| 20260508232040 | 20 | 217 | 4.8 | 4.8 | 0.00 | 0.00 | 0.00 | 45 | 1006.5 |
| 20260508231538 | 20 | 270 | 1.6 | 3.2 | 0.00 | 0.00 | 0.00 | 43 | 1006.2 |
| 20260508231035 | 20 | 263 | 1.6 | 4.8 | 0.00 | 0.00 | 0.00 | 44 | 1006.2 |
| 20260508230531 | 20 | 262 | 3.2 | 4.8 | 0.00 | 0.00 | 0.00 | 43 | 1006.1 |
| 20260508230028 | 20 | 220 | 3.2 | 8.0 | 0.00 | 0.00 | 0.00 | 45 | 1006.0 |
| 20260508225525 | 20 | 252 | 3.2 | 8.0 | 0.00 | 0.00 | 0.00 | 44 | 1006.1 |
| 20260508225022 | 20 | 200 | 8.0 | 9.7 | 0.00 | 0.00 | 0.00 | 45 | 1006.0 |
| 20260508224520 | 20 | 281 | 3.2 | 8.0 | 0.00 | 0.00 | 0.00 | 43 | 1006.3 |
| 20260508224017 | 20 | 217 | 4.8 | 4.8 | 0.00 | 0.00 | 0.00 | 43 | 1006.1 |
| 20260508223515 | 20 | 262 | 3.2 | 8.0 | 0.00 | 0.00 | 0.00 | 42 | 1006.1 |
| 20260508223012 | 20 | 241 | 3.2 | 4.8 | 0.00 | 0.00 | 0.00 | 42 | 1006.0 |
| 20260508222509 | 20 | 205 | 6.4 | 12.9 | 0.00 | 0.00 | 0.00 | 43 | 1006.1 |
| 20260508222005 | 20 | 200 | 8.0 | 14.5 | 0.00 | 0.00 | 0.00 | 43 | 1006.1 |
| 20260508221502 | 20 | 265 | 3.2 | 4.8 | 0.00 | 0.00 | 0.00 | 42 | 1006.0 |
| 20260508220958 | 20 | 231 | 3.2 | 4.8 | 0.00 | 0.00 | 0.00 | 44 | 1005.9 |
| 20260508220454 | 20 | 188 | 3.2 | 8.0 | 0.00 | 0.00 | 0.00 | 43 | 1005.8 |
| 20260508215950 | 20 | 277 | 1.6 | 8.0 | 0.00 | 0.00 | 0.00 | 43 | 1005.9 |
| 20260508215448 | 21 | 256 | 3.2 | 8.0 | 0.00 | 0.00 | 0.00 | 41 | 1005.9 |
| 20260508214944 | 20 | 264 | 8.0 | 11.3 | 0.00 | 0.00 | 0.00 | 41 | 1005.9 |
| 20260508214442 | 20 | 226 | 8.0 | 12.9 | 0.00 | 0.00 | 0.00 | 43 | 1006.0 |
| 20260508213938 | 20 | 212 | 3.2 | 9.7 | 0.00 | 0.00 | 0.00 | 41 | 1006.0 |
| 20260508213436 | 20 | 227 | 4.8 | 9.7 | 0.00 | 0.00 | 0.00 | 40 | 1006.0 |
| 20260508212931 | 21 | 209 | 4.8 | 8.0 | 0.00 | 0.00 | 0.00 | 41 | 1006.1 |
| 20260508212428 | 20 | 256 | 1.6 | 3.2 | 0.00 | 0.00 | 0.00 | 41 | 1006.2 |
| 20260508211924 | 20 | 240 | 4.8 | 4.8 | 0.00 | 0.00 | 0.00 | 43 | 1006.1 |
| 20260508211420 | 20 | 251 | 3.2 | 4.8 | 0.00 | 0.00 | 0.00 | 41 | 1006.3 |
| 20260508210917 | 20 | 215 | 3.2 | 11.3 | 0.00 | 0.00 | 0.00 | 42 | 1006.2 |
| 20260508210414 | 21 | 268 | 3.2 | 12.9 | 0.00 | 0.00 | 0.00 | 40 | 1006.4 |
| 20260508205910 | 21 | 287 | 3.2 | 8.0 | 0.00 | 0.00 | 0.00 | 40 | 1006.8 |
| 20260508205407 | 21 | 204 | 6.4 | 8.0 | 0.00 | 0.00 | 0.00 | 39 | 1006.7 |
| 20260508204903 | 21 | 256 | 8.0 | 11.3 | 0.00 | 0.00 | 0.00 | 37 | 1006.9 |
| 20260508204400 | 21 | 282 | 6.4 | 12.9 | 0.00 | 0.00 | 0.00 | 37 | 1007.0 |
| 20260508203856 | 21 | 281 | 8.0 | 12.9 | 0.00 | 0.00 | 0.00 | 37 | 1007.1 |
| 20260508203352 | 21 | 266 | 3.2 | 4.8 | 0.00 | 0.00 | 0.00 | 39 | 1006.9 |
| 20260508202848 | 21 | 283 | 1.6 | 14.5 | 0.00 | 0.00 | 0.00 | 38 | 1007.0 |
| 20260508202346 | 21 | 283 | 1.6 | 9.7 | 0.00 | 0.00 | 0.00 | 37 | 1007.2 |
| 20260508201843 | 21 | 262 | 9.7 | 9.7 | 0.00 | 0.00 | 0.00 | 37 | 1007.1 |
| 20260508201340 | 21 | 289 | 3.2 | 4.8 | 0.00 | 0.00 | 0.00 | 38 | 1007.3 |
| 20260508200836 | 20 | 261 | 1.6 | 8.0 | 0.00 | 0.00 | 0.00 | 39 | 1007.2 |
| 20260508200333 | 21 | 272 | 1.6 | 11.3 | 0.00 | 0.00 | 0.00 | 38 | 1007.2 |
| 20260508195828 | 20 | 190 | 3.2 | 8.0 | 0.00 | 0.00 | 0.00 | 39 | 1007.2 |
| 20260508195326 | 20 | 247 | 3.2 | 8.0 | 0.00 | 0.00 | 0.00 | 40 | 1007.2 |
| 20260508194822 | 21 | 207 | 3.2 | 8.0 | 0.00 | 0.00 | 0.00 | 38 | 1007.4 |
| 20260508194319 | 21 | 231 | 6.4 | 11.3 | 0.00 | 0.00 | 0.00 | 36 | 1007.5 |
| 20260508193810 | 21 | 260 | 6.4 | 12.9 | 0.00 | 0.00 | 0.00 | 37 | 1007.4 |
| 20260508193307 | 21 | 246 | 6.4 | 9.7 | 0.00 | 0.00 | 0.00 | 39 | 1007.3 |
| 20260508192803 | 21 | 255 | 4.8 | 11.3 | 0.00 | 0.00 | 0.00 | 36 | 1007.5 |
| 20260508192300 | 21 | 222 | 4.8 | 12.9 | 0.00 | 0.00 | 0.00 | 38 | 1007.6 |
| 20260508191757 | 22 | 248 | 3.2 | 12.9 | 0.00 | 0.00 | 0.00 | 36 | 1007.6 |
| 20260508191254 | 22 | 243 | 4.8 | 12.9 | 0.00 | 0.00 | 0.00 | 34 | 1007.8 |
| 20260508190752 | 22 | 289 | 9.7 | 16.1 | 0.00 | 0.00 | 0.00 | 36 | 1007.9 |
| 20260508190248 | 21 | 262 | 3.2 | 4.8 | 0.00 | 0.00 | 0.00 | 39 | 1007.6 |
| 20260508185744 | 21 | 328 | 4.8 | 14.5 | 0.00 | 0.00 | 0.00 | 37 | 1008.1 |
| 20260508185242 | 21 | 248 | 4.8 | 11.3 | 0.00 | 0.00 | 0.00 | 39 | 1007.7 |
| 20260508184739 | 21 | 197 | 6.4 | 14.5 | 0.00 | 0.00 | 0.00 | 40 | 1008.2 |
| 20260508184236 | 21 | 267 | 6.4 | 12.9 | 0.00 | 0.00 | 0.00 | 37 | 1008.4 |
| 20260508183733 | 21 | 288 | 1.6 | 11.3 | 0.00 | 0.00 | 0.00 | 38 | 1008.4 |
| 20260508183229 | 21 | 266 | 9.7 | 14.5 | 0.00 | 0.00 | 0.00 | 35 | 1008.6 |
| 20260508182724 | 21 | 281 | 3.2 | 4.8 | 0.00 | 0.00 | 0.00 | 38 | 1008.6 |
| 20260508182222 | 21 | 264 | 3.2 | 9.7 | 0.00 | 0.00 | 0.00 | 35 | 1008.9 |
| 20260508181718 | 20 | 289 | 3.2 | 12.9 | 0.00 | 0.00 | 0.00 | 36 | 1008.9 |
| 20260508181215 | 21 | 250 | 6.4 | 16.1 | 0.00 | 0.00 | 0.00 | 35 | 1009.1 |
| 20260508180712 | 21 | 283 | 8.0 | 14.5 | 0.00 | 0.00 | 0.00 | 36 | 1009.0 |
| 20260508180208 | 21 | 244 | 8.0 | 12.9 | 0.00 | 0.00 | 0.00 | 38 | 1009.0 |
| 20260508175705 | 21 | 224 | 4.8 | 9.7 | 0.00 | 0.00 | 0.00 | 37 | 1009.2 |
| 20260508175202 | 20 | 227 | 8.0 | 12.9 | 0.00 | 0.00 | 0.00 | 41 | 1009.1 |
| 20260508174700 | 20 | 202 | 4.8 | 12.9 | 0.00 | 0.00 | 0.00 | 40 | 1009.2 |
| 20260508174156 | 21 | 188 | 8.0 | 12.9 | 0.00 | 0.00 | 0.00 | 41 | 1009.4 |
| 20260508173653 | 20 | 320 | 4.8 | 11.3 | 0.00 | 0.00 | 0.00 | 38 | 1009.3 |
| 20260508173149 | 21 | 211 | 9.7 | 12.9 | 0.00 | 0.00 | 0.00 | 41 | 1009.6 |
| 20260508172646 | 21 | 258 | 3.2 | 12.9 | 0.00 | 0.00 | 0.00 | 40 | 1009.9 |
| 20260508172143 | 21 | 287 | 0.0 | 4.8 | 0.00 | 0.00 | 0.00 | 40 | 1009.5 |
| 20260508171639 | 20 | 267 | 4.8 | 14.5 | 0.00 | 0.00 | 0.00 | 39 | 1009.9 |
| 20260508171136 | 20 | 274 | 11.3 | 14.5 | 0.00 | 0.00 | 0.00 | 39 | 1010.0 |
| 20260508170633 | 20 | 198 | 8.0 | 14.5 | 0.00 | 0.00 | 0.00 | 46 | 1010.2 |
| 20260508170130 | 21 | 186 | 9.7 | 12.9 | 0.00 | 0.00 | 0.00 | 44 | 1010.1 |
| 20260508165627 | 20 | 279 | 3.2 | 9.7 | 0.00 | 0.00 | 0.00 | 41 | 1010.4 |
| 20260508165124 | 20 | 253 | 4.8 | 8.0 | 0.00 | 0.00 | 0.00 | 42 | 1010.4 |
| 20260508164620 | 20 | 249 | 1.6 | 8.0 | 0.00 | 0.00 | 0.00 | 41 | 1010.5 |
| 20260508164118 | 20 | 248 | 3.2 | 11.3 | 0.00 | 0.00 | 0.00 | 41 | 1010.8 |
| 20260508163615 | 20 | 233 | 4.8 | 9.7 | 0.00 | 0.00 | 0.00 | 42 | 1010.8 |
| 20260508163112 | 20 | 239 | 4.8 | 8.0 | 0.00 | 0.00 | 0.00 | 44 | 1010.6 |
| 20260508162608 | 20 | 258 | 8.0 | 9.7 | 0.00 | 0.00 | 0.00 | 41 | 1010.9 |
| 20260508162106 | 20 | 243 | 4.8 | 9.7 | 0.00 | 0.00 | 0.00 | 46 | 1010.9 |
| 20260508161602 | 20 | 261 | 11.3 | 14.5 | 0.00 | 0.00 | 0.00 | 42 | 1011.0 |
| 20260508161100 | 20 | 242 | 11.3 | 17.7 | 0.00 | 0.00 | 0.00 | 41 | 1010.9 |
| 20260508160558 | 19 | 255 | 3.2 | 8.0 | 0.00 | 0.00 | 0.00 | 47 | 1010.8 |
| 20260508160055 | 19 | 256 | 3.2 | 11.3 | 0.00 | 0.00 | 0.00 | 44 | 1011.2 |
| 20260508155552 | 19 | 254 | 4.8 | 11.3 | 0.00 | 0.00 | 0.00 | 43 | 1011.3 |
| 20260508155049 | 19 | 338 | 4.8 | 12.9 | 0.00 | 0.00 | 0.00 | 43 | 1011.2 |
| 20260508154546 | 19 | 296 | 4.8 | 11.3 | 0.00 | 0.00 | 0.00 | 44 | 1011.2 |
| 20260508154043 | 19 | 267 | 3.2 | 14.5 | 0.00 | 0.00 | 0.00 | 43 | 1011.4 |
| 20260508153539 | 18 | 245 | 4.8 | 8.0 | 0.00 | 0.00 | 0.00 | 44 | 1011.4 |
| 20260508153036 | 18 | 304 | 6.4 | 14.5 | 0.00 | 0.00 | 0.00 | 44 | 1011.5 |
| 20260508152533 | 18 | 250 | 4.8 | 20.9 | 0.00 | 0.00 | 0.00 | 44 | 1011.7 |
| 20260508152028 | 18 | 217 | 4.8 | 8.0 | 0.00 | 0.00 | 0.00 | 48 | 1011.6 |
| 20260508151525 | 18 | 228 | 4.8 | 11.3 | 0.00 | 0.00 | 0.00 | 48 | 1011.6 |
| 20260508151022 | 18 | 204 | 4.8 | 9.7 | 0.00 | 0.00 | 0.00 | 47 | 1011.7 |
| 20260508150520 | 18 | 262 | 9.7 | 12.9 | 0.00 | 0.00 | 0.00 | 45 | 1011.8 |
| 20260508150015 | 17 | 272 | 0.0 | 4.8 | 0.00 | 0.00 | 0.00 | 47 | 1011.6 |
| 20260508145512 | 17 | 237 | 3.2 | 4.8 | 0.00 | 0.00 | 0.00 | 47 | 1011.8 |
| 20260508145008 | 17 | 262 | 6.4 | 8.0 | 0.00 | 0.00 | 0.00 | 47 | 1011.8 |
| 20260508144506 | 17 | 192 | 6.4 | 9.7 | 0.00 | 0.00 | 0.00 | 49 | 1011.8 |
| 20260508144003 | 17 | 247 | 4.8 | 11.3 | 0.00 | 0.00 | 0.00 | 47 | 1011.8 |
| 20260508143501 | 17 | 201 | 6.4 | 9.7 | 0.00 | 0.00 | 0.00 | 48 | 1012.0 |
| 20260508142957 | 17 | 257 | 3.2 | 4.8 | 0.00 | 0.00 | 0.00 | 50 | 1011.9 |
| 20260508142454 | 17 | 298 | 4.8 | 8.0 | 0.00 | 0.00 | 0.00 | 45 | 1012.1 |
| 20260508141950 | 16 | 208 | 1.6 | 8.0 | 0.00 | 0.00 | 0.00 | 49 | 1012.3 |
| 20260508141447 | 16 | 262 | 1.6 | 8.0 | 0.00 | 0.00 | 0.00 | 47 | 1012.3 |
| 20260508140945 | 16 | 260 | 9.7 | 16.1 | 0.00 | 0.00 | 0.00 | 46 | 1012.4 |
| 20260508140442 | 16 | 246 | 4.8 | 9.7 | 0.00 | 0.00 | 0.00 | 48 | 1012.3 |
| 20260508135937 | 16 | 303 | 4.8 | 12.9 | 0.00 | 0.00 | 0.00 | 46 | 1012.3 |
| 20260508135434 | 16 | 262 | 3.2 | 9.7 | 0.00 | 0.00 | 0.00 | 50 | 1012.4 |
| 20260508134931 | 16 | 248 | 4.8 | 4.8 | 0.00 | 0.00 | 0.00 | 52 | 1012.7 |
| 20260508134427 | 15 | 262 | 1.6 | 4.8 | 0.00 | 0.00 | 0.00 | 58 | 1012.6 |
| 20260508133924 | 15 | 265 | 1.6 | 4.8 | 0.00 | 0.00 | 0.00 | 57 | 1012.6 |
| 20260508133422 | 14 | 190 | 4.8 | 8.0 | 0.00 | 0.00 | 0.00 | 61 | 1012.6 |
| 20260508132918 | 14 | 209 | 4.8 | 4.8 | 0.00 | 0.00 | 0.00 | 58 | 1012.6 |
| 20260508132416 | 14 | 241 | 1.6 | 3.2 | 0.00 | 0.00 | 0.00 | 62 | 1012.6 |
| 20260508131913 | 13 | 253 | 0.0 | 3.2 | 0.00 | 0.00 | 0.00 | 64 | 1012.6 |
| 20260508131408 | 13 | 232 | 3.2 | 3.2 | 0.00 | 0.00 | 0.00 | 64 | 1012.6 |
| 20260508130905 | 13 | 267 | 0.0 | 3.2 | 0.00 | 0.00 | 0.00 | 63 | 1012.6 |
| 20260508130402 | 12 | 270 | 0.0 | 1.6 | 0.00 | 0.00 | 0.00 | 68 | 1012.7 |
| 20260508125858 | 12 | 262 | 1.6 | 3.2 | 0.00 | 0.00 | 0.00 | 67 | 1012.4 |
| 20260508125354 | 12 | 277 | 0.0 | 1.6 | 0.00 | 0.00 | 0.00 | 66 | 1012.7 |
| 20260508124852 | 12 | 272 | 0.0 | 1.6 | 0.00 | 0.00 | 0.00 | 70 | 1012.4 |
| 20260508124349 | 10 | 252 | 0.0 | 3.2 | 0.00 | 0.00 | 0.00 | 75 | 1012.4 |
| 20260508123847 | 10 | 217 | 3.2 | 3.2 | 0.00 | 0.00 | 0.00 | 73 | 1012.5 |
| 20260508123346 | 10 | 233 | 3.2 | 3.2 | 0.00 | 0.00 | 0.00 | 73 | 1012.6 |
| 20260508122842 | 10 | 233 | 1.6 | 4.8 | 0.00 | 0.00 | 0.00 | 74 | 1012.5 |
| 20260508122338 | 9 | 221 | 3.2 | 3.2 | 0.00 | 0.00 | 0.00 | 77 | 1012.7 |
| 20260508121836 | 8 | 249 | 1.6 | 3.2 | 0.00 | 0.00 | 0.00 | 78 | 1012.7 |
| 20260508121334 | 8 | 207 | 4.8 | 4.8 | 0.00 | 0.00 | 0.00 | 79 | 1012.4 |
| 20260508120831 | 7 | 241 | 3.2 | 3.2 | 0.00 | 0.00 | 0.00 | 80 | 1012.7 |
| 20260508120329 | 7 | 259 | 1.6 | 3.2 | 0.00 | 0.00 | 0.00 | 80 | 1012.7 |
| 20260508115826 | 8 | 232 | 3.2 | 3.2 | 0.00 | 0.00 | 0.00 | 79 | 1012.6 |
| 20260508115324 | 8 | 270 | 1.6 | 1.6 | 0.00 | 0.00 | 0.00 | 79 | 1012.6 |
| 20260508114820 | 8 | 266 | 0.0 | 3.2 | 0.00 | 0.00 | 0.00 | 80 | 1012.6 |
| 20260508114317 | 7 | 277 | 0.0 | 1.6 | 0.00 | 0.00 | 0.00 | 81 | 1012.4 |
| 20260508113814 | 7 | 265 | 1.6 | 1.6 | 0.00 | 0.00 | 0.00 | 81 | 1012.3 |
| 20260508113312 | 7 | 247 | 1.6 | 3.2 | 0.00 | 0.00 | 0.00 | 82 | 1012.0 |
| 20260508112808 | 7 | 263 | 0.0 | 0.0 | 0.00 | 0.00 | 0.00 | 83 | 1012.2 |
| 20260508112307 | 7 | 269 | 0.0 | 0.0 | 0.00 | 0.00 | 0.00 | 83 | 1012.1 |
| 20260508111801 | 7 | 269 | 0.0 | 0.0 | 0.00 | 0.00 | 0.00 | 83 | 1012.2 |
| 20260508111259 | 7 | 270 | 0.0 | 0.0 | 0.00 | 0.00 | 0.00 | 83 | 1012.1 |
| 20260508110756 | 6 | 270 | 0.0 | 0.0 | 0.00 | 0.00 | 0.00 | 84 | 1012.2 |
| 20260508110254 | 6 | 267 | 0.0 | 0.0 | 0.00 | 0.00 | 0.00 | 85 | 1011.9 |
| 20260508105753 | 6 | 268 | 0.0 | 0.0 | 0.00 | 0.00 | 0.00 | 86 | 1012.0 |
| 20260508105250 | 6 | 268 | 0.0 | 1.6 | 0.00 | 0.00 | 0.00 | 86 | 1012.2 |
| 20260508104748 | 6 | 265 | 1.6 | 1.6 | 0.00 | 0.00 | 0.00 | 86 | 1012.0 |
| 20260508104244 | 6 | 256 | 1.6 | 3.2 | 0.00 | 0.00 | 0.00 | 86 | 1012.1 |
| 20260508103742 | 6 | 255 | 3.2 | 3.2 | 0.00 | 0.00 | 0.00 | 87 | 1011.9 |
| 20260508103238 | 6 | 260 | 1.6 | 3.2 | 0.00 | 0.00 | 0.00 | 87 | 1011.8 |
| 20260508102735 | 6 | 246 | 3.2 | 3.2 | 0.00 | 0.00 | 0.00 | 87 | 1012.1 |
| 20260508102234 | 6 | 233 | 3.2 | 3.2 | 0.00 | 0.00 | 0.00 | 88 | 1012.0 |
| 20260508101730 | 6 | 244 | 0.0 | 0.0 | 0.00 | 0.00 | 0.00 | 89 | 1011.7 |
| 20260508101228 | 6 | 272 | 0.0 | 0.0 | 0.00 | 0.00 | 0.00 | 90 | 1011.9 |
| 20260508100726 | 6 | 272 | 0.0 | 0.0 | 0.00 | 0.00 | 0.00 | 91 | 1012.0 |
| 20260508100224 | 6 | 272 | 0.0 | 0.0 | 0.00 | 0.00 | 0.00 | 91 | 1011.8 |
| 20260508095719 | 6 | 272 | 0.0 | 0.0 | 0.00 | 0.00 | 0.00 | 91 | 1012.0 |
| 20260508095218 | 5 | 272 | 0.0 | 0.0 | 0.00 | 0.00 | 0.00 | 92 | 1011.8 |
| 20260508094714 | 5 | 272 | 0.0 | 0.0 | 0.00 | 0.00 | 0.00 | 92 | 1011.9 |
| 20260508094211 | 5 | 272 | 0.0 | 0.0 | 0.00 | 0.00 | 0.00 | 92 | 1011.6 |
| 20260508093707 | 5 | 272 | 0.0 | 0.0 | 0.00 | 0.00 | 0.00 | 92 | 1012.0 |
| 20260508093206 | 5 | 272 | 0.0 | 0.0 | 0.00 | 0.00 | 0.00 | 92 | 1011.8 |
| 20260508092702 | 5 | 272 | 0.0 | 0.0 | 0.00 | 0.00 | 0.00 | 92 | 1011.7 |
| 20260508092201 | 5 | 272 | 0.0 | 0.0 | 0.00 | 0.00 | 0.00 | 93 | 1011.9 |
| 20260508091658 | 5 | 272 | 0.0 | 0.0 | 0.00 | 0.00 | 0.00 | 92 | 1012.0 |
| 20260508091155 | 5 | 272 | 0.0 | 0.0 | 0.00 | 0.00 | 0.00 | 92 | 1011.9 |
| 20260508090653 | 5 | 272 | 0.0 | 0.0 | 0.00 | 0.00 | 0.00 | 92 | 1011.8 |
| 20260508090150 | 5 | 272 | 0.0 | 0.0 | 0.00 | 0.00 | 0.00 | 92 | 1011.9 |
| 20260508085645 | 5 | 272 | 0.0 | 0.0 | 0.00 | 0.00 | 0.00 | 92 | 1011.9 |
| 20260508085143 | 5 | 272 | 0.0 | 0.0 | 0.00 | 0.00 | 0.00 | 92 | 1011.6 |
| 20260508084639 | 5 | 272 | 0.0 | 0.0 | 0.00 | 0.00 | 0.00 | 92 | 1011.9 |
| 20260508084137 | 5 | 272 | 0.0 | 0.0 | 0.00 | 0.00 | 0.00 | 92 | 1011.6 |
| 20260508083634 | 5 | 272 | 0.0 | 0.0 | 0.00 | 0.00 | 0.00 | 92 | 1011.7 |
| 20260508083132 | 5 | 272 | 0.0 | 0.0 | 0.00 | 0.00 | 0.00 | 92 | 1011.7 |
| 20260508082626 | 5 | 272 | 0.0 | 0.0 | 0.00 | 0.00 | 0.00 | 91 | 1011.7 |
| 20260508082124 | 5 | 272 | 0.0 | 0.0 | 0.00 | 0.00 | 0.00 | 91 | 1011.7 |
| 20260508081621 | 5 | 272 | 0.0 | 0.0 | 0.00 | 0.00 | 0.00 | 91 | 1011.7 |
| 20260508081118 | 5 | 272 | 0.0 | 0.0 | 0.00 | 0.00 | 0.00 | 91 | 1011.6 |
| 20260508080615 | 5 | 272 | 0.0 | 0.0 | 0.00 | 0.00 | 0.00 | 91 | 1011.7 |
| 20260508080114 | 5 | 272 | 0.0 | 0.0 | 0.00 | 0.00 | 0.00 | 91 | 1011.7 |
| 20260508075609 | 5 | 272 | 0.0 | 0.0 | 0.00 | 0.00 | 0.00 | 91 | 1011.6 |
| 20260508075106 | 5 | 272 | 0.0 | 0.0 | 0.00 | 0.00 | 0.00 | 90 | 1011.8 |
| 20260508074604 | 5 | 272 | 0.0 | 0.0 | 0.00 | 0.00 | 0.00 | 90 | 1011.6 |
| 20260508074101 | 5 | 272 | 0.0 | 0.0 | 0.00 | 0.00 | 0.00 | 90 | 1011.6 |
| 20260508073558 | 5 | 272 | 0.0 | 0.0 | 0.00 | 0.00 | 0.00 | 90 | 1011.7 |
| 20260508073056 | 6 | 272 | 0.0 | 0.0 | 0.00 | 0.00 | 0.00 | 89 | 1011.7 |
| 20260508072551 | 6 | 272 | 0.0 | 0.0 | 0.00 | 0.00 | 0.00 | 89 | 1011.8 |
| 20260508072048 | 6 | 272 | 0.0 | 0.0 | 0.00 | 0.00 | 0.00 | 89 | 1011.5 |
| 20260508071547 | 6 | 272 | 0.0 | 0.0 | 0.00 | 0.00 | 0.00 | 88 | 1011.7 |
| 20260508071044 | 6 | 272 | 0.0 | 0.0 | 0.00 | 0.00 | 0.00 | 88 | 1011.7 |
| 20260508070541 | 6 | 272 | 0.0 | 0.0 | 0.00 | 0.00 | 0.00 | 88 | 1011.6 |
| 20260508070040 | 6 | 272 | 0.0 | 0.0 | 0.00 | 0.00 | 0.00 | 87 | 1011.8 |
| 20260508065537 | 6 | 272 | 0.0 | 0.0 | 0.00 | 0.00 | 0.00 | 87 | 1011.6 |
| 20260508065035 | 6 | 272 | 0.0 | 0.0 | 0.00 | 0.00 | 0.00 | 87 | 1011.7 |
| 20260508064532 | 6 | 272 | 0.0 | 0.0 | 0.00 | 0.00 | 0.00 | 86 | 1011.9 |
| 20260508064030 | 6 | 272 | 0.0 | 0.0 | 0.00 | 0.00 | 0.00 | 86 | 1012.1 |
| 20260508063527 | 6 | 272 | 0.0 | 0.0 | 0.00 | 0.00 | 0.00 | 86 | 1012.0 |
| 20260508063025 | 6 | 272 | 0.0 | 0.0 | 0.00 | 0.00 | 0.00 | 86 | 1012.0 |
| 20260508062522 | 6 | 272 | 0.0 | 0.0 | 0.00 | 0.00 | 0.00 | 85 | 1012.2 |
| 20260508062019 | 6 | 272 | 0.0 | 0.0 | 0.00 | 0.00 | 0.00 | 85 | 1012.2 |
| 20260508061517 | 6 | 272 | 0.0 | 0.0 | 0.00 | 0.00 | 0.00 | 84 | 1012.1 |
| 20260508061013 | 6 | 272 | 0.0 | 0.0 | 0.00 | 0.00 | 0.00 | 84 | 1012.3 |
| 20260508060510 | 6 | 272 | 0.0 | 0.0 | 0.00 | 0.00 | 0.00 | 84 | 1012.3 |
| 20260508060008 | 7 | 272 | 0.0 | 0.0 | 0.00 | 0.00 | 0.00 | 83 | 1012.2 |
| 20260508055504 | 7 | 272 | 0.0 | 0.0 | 0.00 | 0.00 | 0.00 | 83 | 1012.4 |
| 20260508055000 | 7 | 272 | 0.0 | 0.0 | 0.00 | 0.00 | 0.00 | 82 | 1012.2 |
| 20260508054457 | 7 | 272 | 0.0 | 0.0 | 0.00 | 0.00 | 0.00 | 81 | 1012.4 |
| 20260508053954 | 7 | 272 | 0.0 | 0.0 | 0.00 | 0.00 | 0.00 | 81 | 1012.3 |
| 20260508053450 | 7 | 272 | 0.0 | 0.0 | 0.00 | 0.00 | 0.00 | 81 | 1012.3 |
| 20260508052949 | 7 | 272 | 0.0 | 0.0 | 0.00 | 0.00 | 0.00 | 81 | 1012.3 |
| 20260508052446 | 7 | 272 | 0.0 | 1.6 | 0.00 | 0.00 | 0.00 | 81 | 1012.2 |
| 20260508051942 | 7 | 272 | 0.0 | 0.0 | 0.00 | 0.00 | 0.00 | 81 | 1012.1 |
| 20260508051438 | 7 | 272 | 0.0 | 0.0 | 0.00 | 0.00 | 0.00 | 82 | 1012.1 |
| 20260508050934 | 7 | 272 | 0.0 | 0.0 | 0.00 | 0.00 | 0.00 | 83 | 1012.0 |
| 20260508050431 | 7 | 272 | 0.0 | 0.0 | 0.00 | 0.00 | 0.00 | 83 | 1011.8 |
| 20260508045927 | 7 | 272 | 0.0 | 0.0 | 0.00 | 0.00 | 0.00 | 83 | 1012.1 |
| 20260508045425 | 7 | 272 | 0.0 | 0.0 | 0.00 | 0.00 | 0.00 | 82 | 1011.8 |
| 20260508044922 | 7 | 272 | 0.0 | 0.0 | 0.00 | 0.00 | 0.00 | 82 | 1012.0 |
| 20260508044419 | 7 | 272 | 0.0 | 0.0 | 0.00 | 0.00 | 0.00 | 81 | 1012.3 |
| 20260508043914 | 7 | 272 | 0.0 | 0.0 | 0.00 | 0.00 | 0.00 | 81 | 1012.0 |
| 20260508043412 | 7 | 272 | 0.0 | 0.0 | 0.00 | 0.00 | 0.00 | 81 | 1012.1 |
| 20260508042908 | 7 | 272 | 0.0 | 0.0 | 0.00 | 0.00 | 0.00 | 80 | 1012.1 |
| 20260508042406 | 7 | 272 | 0.0 | 0.0 | 0.00 | 0.00 | 0.00 | 80 | 1012.1 |
| 20260508041903 | 7 | 272 | 0.0 | 0.0 | 0.00 | 0.00 | 0.00 | 81 | 1012.1 |
| 20260508041359 | 7 | 272 | 0.0 | 0.0 | 0.00 | 0.00 | 0.00 | 80 | 1011.9 |
| 20260508040856 | 7 | 272 | 0.0 | 1.6 | 0.00 | 0.00 | 0.00 | 80 | 1011.8 |
| 20260508040353 | 7 | 272 | 0.0 | 0.0 | 0.00 | 0.00 | 0.00 | 79 | 1011.8 |
| 20260508035851 | 7 | 272 | 0.0 | 0.0 | 0.00 | 0.00 | 0.00 | 79 | 1011.9 |
| 20260508035348 | 7 | 272 | 0.0 | 0.0 | 0.00 | 0.00 | 0.00 | 79 | 1011.6 |
| 20260508034844 | 7 | 272 | 0.0 | 0.0 | 0.00 | 0.00 | 0.00 | 78 | 1011.7 |
| 20260508034342 | 8 | 272 | 0.0 | 0.0 | 0.00 | 0.00 | 0.00 | 78 | 1012.1 |
| 20260508033838 | 8 | 272 | 0.0 | 0.0 | 0.00 | 0.00 | 0.00 | 78 | 1012.0 |
| 20260508033337 | 8 | 272 | 0.0 | 0.0 | 0.00 | 0.00 | 0.00 | 77 | 1011.9 |
| 20260508032834 | 8 | 272 | 0.0 | 0.0 | 0.00 | 0.00 | 0.00 | 76 | 1011.8 |
| 20260508032331 | 8 | 272 | 0.0 | 0.0 | 0.00 | 0.00 | 0.00 | 75 | 1012.1 |
| 20260508031827 | 8 | 272 | 0.0 | 0.0 | 0.00 | 0.00 | 0.00 | 74 | 1012.0 |
| 20260508031324 | 8 | 272 | 0.0 | 0.0 | 0.00 | 0.00 | 0.00 | 74 | 1012.1 |
| 20260508030821 | 9 | 272 | 0.0 | 0.0 | 0.00 | 0.00 | 0.00 | 73 | 1011.7 |
| 20260508030318 | 9 | 272 | 0.0 | 0.0 | 0.00 | 0.00 | 0.00 | 72 | 1011.9 |
| 20260508025815 | 9 | 272 | 0.0 | 0.0 | 0.00 | 0.00 | 0.00 | 72 | 1012.0 |
| 20260508025312 | 10 | 272 | 0.0 | 0.0 | 0.00 | 0.00 | 0.00 | 71 | 1012.1 |
| 20260508024809 | 10 | 272 | 0.0 | 0.0 | 0.00 | 0.00 | 0.00 | 70 | 1011.9 |
| 20260508024305 | 10 | 271 | 0.0 | 1.6 | 0.00 | 0.00 | 0.00 | 69 | 1011.6 |
| 20260508023802 | 10 | 272 | 0.0 | 1.6 | 0.00 | 0.00 | 0.00 | 69 | 1011.7 |
| 20260508023259 | 10 | 271 | 0.0 | 0.0 | 0.00 | 0.00 | 0.00 | 68 | 1011.6 |
| 20260508022755 | 10 | 271 | 0.0 | 0.0 | 0.00 | 0.00 | 0.00 | 66 | 1011.8 |
| 20260508022251 | 10 | 271 | 0.0 | 0.0 | 0.00 | 0.00 | 0.00 | 63 | 1011.6 |
| 20260508021749 | 10 | 271 | 0.0 | 0.0 | 0.00 | 0.00 | 0.00 | 61 | 1011.8 |
| 20260508021244 | 10 | 271 | 0.0 | 0.0 | 0.00 | 0.00 | 0.00 | 60 | 1011.9 |
| 20260508020741 | 10 | 271 | 0.0 | 0.0 | 0.00 | 0.00 | 0.00 | 59 | 1011.6 |
| 20260508020239 | 10 | 271 | 0.0 | 0.0 | 0.00 | 0.00 | 0.00 | 57 | 1011.7 |
| 20260508015735 | 10 | 271 | 0.0 | 0.0 | 0.00 | 0.00 | 0.00 | 56 | 1011.9 |
| 20260508015233 | 11 | 271 | 0.0 | 0.0 | 0.00 | 0.00 | 0.00 | 55 | 1011.6 |
| 20260508014729 | 11 | 271 | 0.0 | 0.0 | 0.00 | 0.00 | 0.00 | 54 | 1011.4 |
| 20260508014226 | 11 | 271 | 0.0 | 0.0 | 0.00 | 0.00 | 0.00 | 52 | 1011.6 |
| 20260508013722 | 11 | 271 | 0.0 | 0.0 | 0.00 | 0.00 | 0.00 | 51 | 1011.5 |